www.pogodaiklimat.ru

Погода и климат >> Архив погоды >> Россия >> Камчатский край >> Слаутное


ПОГОДА в Слаутном

  • Прогноз погоды в Слаутном
  • Монитор погоды в Слаутном

АРХИВ ПОГОДЫ в Слаутном

Время (UTC), дата Ветер
(напр.,м/с)
 
Видим.   Явления Облачность Т
(С)
Тd
(С)
f
(%)
Тe
(С)
Тes
(С)
Комфортность P
(гПа)
Po
(гПа)
Тmin
(С)
Tmax
(С)
R
(мм)
R24
(мм)
S
(см)
06 13.05 З 4
{10}
10 км ливневой дождь 10/10 600 м
[Cb cap]
+5.4 +4.0 91 +1 +1 1000.4 995.0
09 13.05 ЮЗ 2 н/о н/о +5.5 +4.5 93 +3 +3 1001.8 996.4 +10.0 5
12 13.05 СВ 2 50 км {ливн. осадки} 9/6 600 м
[Sc Ac trans Ci fib]
+2.3 +0.2 86 -1 -1 1004.8 999.3
15 13.05 СВ 4 50 км 8/6 600 м
[Sc Ac trans Ci fib]
+0.8 -1.1 87 -5 -5 1006.7 1001.2
18 13.05 С 2 н/о н/о +0.6 -2.8 78 -3 -3 1009.3 1003.8
21 13.05 С 4 н/о н/о +1.9 -2.7 72 -3 -3 1010.5 1005.0 +0.1 0.3
00 14.05 СВ 5 н/о н/о +3.0 -3.5 62 -2 -2 1010.9 1005.5
03 14.05 СВ 6-10
{11}
50 км 6/6 600 м
[]
+3.9 -5.2 51 -1 +1 1011.1 1005.7
06 14.05 СВ 7-13
{13}
50 км 8/5 600 м
[Sc Ac trans Ci fib]
+2.4 -5.6 55 -3 -3 1012.2 1006.7
09 14.05 СВ 7-11
{13}
50 км 9/8 600 м
[Sc Ac As Ci fib]
+0.3 -4.1 72 -6 -6 1013.6 1008.0 +4.2
12 14.05 С 7-13
{13}
50 км 9/8 600 м
[Sc Ac trans Ci fib]
-0.9 -3.8 81 -8 -8 1014.2 1008.6
15 14.05 С 7-11
{13}
20 км 10/10 600 м
[Sc]
-1.5 -5.0 77 -9 -9 1015.1 1009.5
18 14.05 С 6-10
{12}
20 км 10/10 600 м
[Sc]
-1.9 -5.6 76 -9 -9 1015.7 1010.1
21 14.05 С 8-14
{14}
20 км 10/8 600 м
[Sc Ac trans]
-0.6 -5.1 72 -8 -8 1016.6 1011.0 -2.0
00 15.05 С 7-11
{14}
50 км 9/8 600 м
[Sc Ac trans Ci fib]
+1.7 -4.4 64 -4 -4 1017.0 1011.5
03 15.05 С 6-11
{13}
50 км 10/8 600 м
[Sc Ac trans]
+2.8 -3.7 62 -3 -2 1017.2 1011.7
06 15.05 С 7-11
{14}
20 км 10/10 600 м
[Sc]
+1.9 -3.9 65 -4 -4 1018.2 1012.7
09 15.05 С 4
{12}
50 км 9/8 600 м
[Sc Ac trans Ci fib]
-0.3 -4.3 74 -6 -6 1019.8 1014.2 +3.5
12 15.05 С 5
{10}
50 км 8/6 600 м
[Sc Ac trans Ci fib]
-1.9 -4.8 81 -8 -8 1020.9 1015.3
15 15.05 С 3 50 км 9/8 600 м
[Sc Ac trans Ci fib]
-2.5 -5.4 80 -8 -8 1021.3 1015.7
18 15.05 С 2 50 км 6/5 600 м
[Sc Ac trans Ci fib]
-1.9 -5.0 79 -6 -5 1022.0 1016.4
21 15.05 С 3 50 км 9/8 600 м
[Sc Ac trans Ci fib]
0.0 -4.7 71 -4 -4 1022.6 1017.0 -3.4
00 16.05 СЗ 2 50 км 9/8 600 м
[Sc Ac trans Ci fib]
+3.9 -4.4 55 +2 +3 1021.9 1016.4
03 16.05 С 3 50 км 9/8 600 м
[Sc Ac trans Ci fib]
+5.3 -6.7 42 +3 +4 1021.2 1015.7
06 16.05 ЮВ 2 50 км 5/3 600 м
[Sc Ac trans Ci fib]
+6.5 -7.3 37 +5 +7 1020.5 1015.0
09 16.05 Ю 1 50 км 3/1 600 м
[Sc Ac trans Ci fib]
+4.9 -6.9 42 +4 +5 1020.8 1015.3 +7.1
12 16.05 ЮВ 2 50 км 4/3 600 м
[Sc Ac trans Ci fib]
-2.8 -5.5 82 -7 -7 1020.9 1015.2
15 16.05 В 2 50 км 4/3 600 м
[Sc Ac trans Ci fib]
-3.3 -5.4 85 -7 -7 1020.6 1014.9
18 16.05 ЮЗ 2 50 км 5/3 600 м
[Sc Ac trans Ci fib]
+0.5 -4.3 70 -3 -2 1019.9 1014.3
21 16.05 ЮЗ 5 50 км 6/4 600 м
[Sc Ac trans Ci fib]
+5.6 -5.0 46 +2 +4 1018.5 1013.0 -4.4
00 17.05 ЮЗ 5-12
{12}
50 км 8/3 600 м
[Sc Ac trans Ci fib]
+8.6 -4.1 40 +6 +9 1016.8 1011.4
03 17.05 ЮЗ 5-10
{12}
50 км 5/3 600 м
[Sc Ac trans Ci fib]
+8.6 -4.9 38 +6 +9 1015.3 1009.9
06 17.05 ЮЗ 5
{11}
10 км ливневой дождь 10/10 600 м
[Cb cap]
+4.4 +0.1 74 -0 -0 1015.4 1009.9
09 17.05 Ю 3 50 км {ливн. осадки} 9/8 600 м
[Sc Ac trans Ci fib]
+3.8 +0.9 81 0 0 1014.4 1008.9 +9.3 0.9
12 17.05 Ю 3 50 км 8/6 600 м
[Sc Ac trans Ci fib]
+2.7 -1.0 77 -1 -1 1013.6 1008.1
15 17.05 Ю 4 50 км 9/8 600 м
[Sc Ac trans Ci fib]
+2.4 -0.9 79 -2 -2 1012.9 1007.4
18 17.05 Ю 4 20 км 10/10 600 м
[Sc]
+1.9 -1.5 78 -3 -3 1012.9 1007.4
21 17.05 Ю 4
{10}
20 км слаб. ливневой дождь 10/10 600 м
[Cb cap]
+3.6 +0.3 79 -1 -1 1012.5 1007.0 +1.9 0.3
00 18.05 Ю 5
{10}
20 км {ливн. осадки} 10/10 600 м
[Sc]
+3.8 +0.5 79 -1 -1 1012.3 1006.9
03 18.05 ЮЗ 3 20 км 10/10 600 м
[Sc]
+7.3 +0.8 63 +5 +5 1011.8 1006.4
06 18.05 Ю 1 20 км слаб. ливневой дождь 10/10 600 м
[Cb cap]
+7.5 +2.8 72 +7 +7 1011.7 1006.3
09 18.05 С 2 10 км слаб. ливневой дождь 10/10 300 м
[Cb cap]
+5.3 +4.3 93 +3 +3 1012.4 1007.0 +7.9 1
12 18.05 ЮЗ 2 н/о н/о +3.6 +3.2 97 0 0 1013.0 1007.5
15 18.05 ЮВ 1 10 км слаб. ливневой дождь 10/10 600 м
[Cb cap]
+2.7 +2.4 98 +1 +1 1014.0 1008.5
18 18.05 С 2 20 км {ливн. осадки} 10/10 600 м
[Sc]
+1.8 +1.5 98 -2 -2 1019.8 1009.3
21 18.05 СВ 4 20 км 10/10 600 м
[Sc]
+3.7 +0.6 80 -1 -1 1015.6 1010.1 +1.8 1
00 19.05 СВ 4 20 км 10/10 600 м
[Sc]
+5.8 -0.6 63 +2 +2 1015.1 1009.7
03 19.05 СВ 3 50 км 10/10 600 м
[Sc]
+7.0 -1.7 54 +5 +5 1014.2 1008.8
06 19.05 В 4 20 км 10/10 600 м
[Sc]
+7.3 -2.0 52 +4 +4 1012.6 1007.2
09 19.05 СВ 4 20 км 10/10 600 м
[Sc]
+4.1 -3.6 57 0 0 1011.8 1006.3 +7.7
12 19.05 С 3 20 км 10/10 600 м
[Sc]
+2.7 -3.2 65 -1 -1 1010.8 1005.3
15 19.05 С 4 20 км 10/10 600 м
[Sc]
+1.5 -2.0 78 -3 -3 1009.8 1004.3
18 19.05 С 3 20 км 10/10 600 м
[Sc]
+1.4 -1.8 79 -3 -3 1009.3 1003.8
21 19.05 С 3 50 км 9/8 600 м
[Sc Ac trans Ci fib]
+3.0 -0.4 78 -1 0 1008.8 1003.3 +1.2
00 20.05 С 2 10 км слаб. ливневой дождь 10/10 600 м
[Cb cap]
+3.3 +1.0 85 0 0 1009.3 1003.8
03 20.05 С 3 10 км слаб. ливневой дождь 10/10 600 м
[Cb cap]
+4.6 +2.6 87 +1 +1 1009.6 1004.2

 

Местоположение метеостанции Слаутное (Камчатский край, Россия): широта 63.20 долгота 167.80 высота над уровнем моря 44 м.

В архиве по умолчанию представлена погода в Слаутном за последнюю неделю. Архивные данные за месяц целиком и за предыдущие месяцы, начиная с января 2011 года, Вы можете получить, выбрав интересующий диапазон дат из раскрывающегося списка и нажав кнопку "Ввод!".


*Определитесь, кто Вы:
робот инопланетянин человек

Внимание! Время в таблицах - всемирное. Для получения местного времени необходимо прибавить поправку, которая равна 12 ч.

Смотрите также архив погоды в соседних городах и на ближайших метеорологических станциях:

Погода в Каменском (Камчатский край, Россия) (114 км)
Погода в Марково (Чукотка, Россия) (208 км)
Погода в Верхне-Пенжино (Камчатский край, Россия) (210 км)
Погода в Тиличиках (Камчатский край, Россия) (322 км)
Погода в Апуке (Камчатский край, Россия) (322 км)
Погода в Кегали (Магаданская область, Россия) (354 км)
Погода в Танюрере (Чукотка, Россия) (371 км)
Погода в Чемурнауте (Камчатский край, Россия) (372 км)
Погода в Баимке (Чукотка, Россия) (407 км)
Погода в Омолоне (Чукотка, Россия) (419 км)

Пояснения к столбцам:

Ветер - указаны скорость ветра в м/с - средняя за 10 мин, порывы в срок и между сроками (в фигурных скобках) и направление, откуда дует ветер: С - северный, СВ - северо-восточный, В - восточный, ЮВ - юго-восточный, Ю - южный, ЮЗ - юго-западный, З - западный, СЗ - северо-западный.
Видимость - горизонтальная дальность видимости в метрах или километрах. При видимости от 1 до 10 км при отсутствии осадков обычно наблюдается дымка, при ухудшении видимости до 1 км и менее - туман. В сухую погоду видимость может ухудшаться дымом, пылью или мглою.
Явления - указаны атмосферные явления, наблюдавшиеся в срок или в последний час перед сроком; фигурными скобками обозначены явления, наблюдавшиеся между сроками (за 1-3 часа до срока); квадратными скобками обозначены град или гололедные отложения с указанием их диаметра в мм.
Облачность - указаны через наклонную черту общая и нижняя облачность в баллах и высота нижней границы облаков в метрах; квадратными скобками обозначены формы облаков: Ci - перистые, Cs - перисто-слоистые, Cc - перисто-кучевые, Ac - высококучевые, As - высокослоистые, Sc - слоисто-кучевые, Ns - слоисто-дождевые, Cu - кучевые, Cb - кучево-дождевые. Подробнее классификацию облаков см. в Атласе облаков (PDF).
T - Температура воздуха - температура, измеренная на высоте 2 м над землей.
Td - Температура точки росы - температура, при понижении до которой содержащийся в воздухе водяной пар достигнет насыщения.
f - Относительная влажность воздуха - влажноcть воздуха, измеренная на высоте 2 м над землей.
Te - Эффективная температура - температура, которую ощущает одетый по сезону человек в тени. Характеристика душности погоды. При расчете учитывается влияние влажности воздуха и скорости ветра на теплоощущения человека.
Tes - Эффективная температура на солнце - температура, которую ощущает человек, с поправкой на солнечный нагрев. Характеристика знойности погоды. Зависит от высоты солнца над горизонтом, облачности и скорости ветра. Ночью, в пасмурную погоду, а также при ветре 12 м/с и более поправка равна нулю.
P - Атмосферное давление - приведенное к уровню моря атмосферное давление.
Po - Атмосферное давление - измеренное на уровне метеостанции атмосферное давление.
Tmin - Минимальная температура - минимум температуры воздуха на высоте 2 м над землей.
Tmax - Максимальная температура - максимум температуры воздуха на высоте 2 м над землей.
R - Количество осадков - Количество выпавших осадков за период времени, мм. При наведении курсора мыши на число - период времени, за который выпало указанное количество осадков.
R24 - Количество осадков - Количество выпавших осадков за 24 часа, мм.
S - Снежный покров - Высота снежного покрова, см. При наведении курсора мыши на число - состояние снежного покрова и степень покрытия местности в баллах.